OMA154 LSZH-OOMS

Flight info

Callsign OMA154
Flight time N/A
Altitude 37000
Route DEGES Z2 TUNUM Z204 GEDSO DCT VEKEN DCT MSR DCT PINDO DCT KEA DCT KUMBI L612 BLT A16 CVO L315 HGD M872 BOVET DCT MEDRO J852 GOKSA M872 BDB Y214 KUTNA M440 TULBU
Aircraft B789/H-SDE1E2E3FGHIJ2J3J4J5M1RWXY/LB1D1

Departure

Time 2026-05-04 11:39
Airport Zürich Airport (LSZH)

Arrival

Time N/A
Airport Muscat International Airport (OOMS)
Time Latitude Longitude Altitude Speed Heading
2026-05-04 11:13 47.46190 8.55398 1402 ft 0 kts 186°
2026-05-04 11:27 47.46267 8.55342 1411 ft 0 kts 96°
2026-05-04 11:31 47.46258 8.55460 1407 ft 10 kts 96°
2026-05-04 11:33 47.46010 8.56266 1414 ft 13 kts 137°
2026-05-04 11:33 47.45943 8.56357 1415 ft 13 kts 137°
2026-05-04 11:33 47.45872 8.56452 1415 ft 15 kts 137°
2026-05-04 11:34 47.45804 8.56571 1414 ft 15 kts 111°
2026-05-04 11:34 47.45789 8.56724 1409 ft 15 kts 96°
2026-05-04 11:34 47.45777 8.56884 1409 ft 15 kts 95°
2026-05-04 11:34 47.45739 8.57015 1408 ft 13 kts 144°
2026-05-04 11:35 47.45673 8.57013 1410 ft 6 kts 219°
2026-05-04 11:35 47.45664 8.56983 1411 ft 2 kts 259°
2026-05-04 11:35 47.45666 8.56962 1411 ft 2 kts 276°
2026-05-04 11:35 47.45666 8.56961 1411 ft 0 kts 276°
2026-05-04 11:38 47.45667 8.56945 1409 ft 12 kts 276°
2026-05-04 11:38 47.45699 8.56485 1404 ft 82 kts 276°
2026-05-04 11:38 47.45785 8.55287 1403 ft 151 kts 276°
2026-05-04 11:38 47.45914 8.53519 1780 ft 177 kts 280°
2026-05-04 11:39 47.46052 8.51704 2758 ft 177 kts 277°
2026-05-04 11:39 47.46170 8.49888 3587 ft 184 kts 276°
2026-05-04 11:40 47.42620 8.38090 7900 ft 232 kts 238°
2026-05-04 11:41 47.41493 8.36437 8801 ft 229 kts 212°
2026-05-04 11:41 47.39978 8.35783 9622 ft 232 kts 181°
2026-05-04 11:41 47.38393 8.36316 10348 ft 242 kts 151°
2026-05-04 11:41 47.37122 8.38114 10692 ft 272 kts 118°
2026-05-04 11:42 47.36761 8.40926 11274 ft 289 kts 81°
2026-05-04 11:42 47.37560 8.43641 12093 ft 296 kts 48°
2026-05-04 11:42 47.39253 8.45356 12892 ft 299 kts 14°
2026-05-04 11:42 47.41281 8.45966 13569 ft 306 kts 13°
2026-05-04 11:43 47.43082 8.47611 14338 ft 311 kts 50°
2026-05-04 11:43 47.44246 8.50330 15014 ft 315 kts 65°
2026-05-04 11:43 47.45180 8.53278 15774 ft 318 kts 70°
2026-05-04 11:43 47.45814 8.56404 16538 ft 317 kts 89°
2026-05-04 11:44 47.45862 8.59655 17263 ft 319 kts 91°
2026-05-04 11:44 47.45990 8.63009 17650 ft 338 kts 89°
2026-05-04 11:44 47.46153 8.66612 17718 ft 364 kts 89°
2026-05-04 11:44 47.46297 8.70472 17780 ft 389 kts 89°
2026-05-04 11:45 47.46436 8.74544 17864 ft 412 kts 89°
2026-05-04 11:45 47.46594 8.78847 18412 ft 420 kts 89°
2026-05-04 11:45 47.46563 8.83162 19023 ft 420 kts 101°
2026-05-04 11:45 47.45996 8.87349 19574 ft 423 kts 104°
2026-05-04 11:46 47.45374 8.91586 20177 ft 427 kts 105°
2026-05-04 11:46 47.44740 8.95909 20741 ft 432 kts 104°
2026-05-04 11:46 47.44181 8.99873 21282 ft 436 kts 104°
2026-05-04 11:46 47.43559 9.04295 21835 ft 440 kts 104°
2026-05-04 11:47 47.42915 9.08736 22384 ft 444 kts 105°
2026-05-04 11:47 47.42260 9.13217 22905 ft 448 kts 105°
2026-05-04 11:47 47.41679 9.17765 23391 ft 455 kts 97°
2026-05-04 11:47 47.41691 9.22415 23851 ft 462 kts 85°
2026-05-04 11:48 47.42296 9.27113 24256 ft 467 kts 79°
2026-05-04 11:48 47.43009 9.31828 24688 ft 470 kts 79°
2026-05-04 11:48 47.43661 9.36026 25073 ft 473 kts 79°
2026-05-04 11:48 47.44378 9.40726 25480 ft 476 kts 79°
2026-05-04 11:49 47.45093 9.45525 25899 ft 479 kts 79°
2026-05-04 11:49 47.45811 9.50344 26258 ft 482 kts 79°
2026-05-04 11:49 47.46542 9.55195 26663 ft 485 kts 79°
2026-05-04 11:49 47.47105 9.60120 27033 ft 484 kts 89°
2026-05-04 11:50 47.47019 9.65096 27386 ft 484 kts 97°
2026-05-04 11:50 47.46745 9.70072 27732 ft 487 kts 97°
2026-05-04 11:50 47.46456 9.75077 28104 ft 489 kts 97°
2026-05-04 11:50 47.46176 9.80113 28472 ft 492 kts 97°
2026-05-04 11:51 47.45906 9.85125 28819 ft 494 kts 97°
2026-05-04 11:51 47.45623 9.90214 29149 ft 497 kts 97°
2026-05-04 11:51 47.45329 9.95318 29520 ft 499 kts 97°
2026-05-04 11:51 47.45035 10.00453 29861 ft 502 kts 97°
2026-05-04 11:52 47.44741 10.05613 30177 ft 504 kts 97°
2026-05-04 11:52 47.44443 10.10793 30458 ft 506 kts 97°
2026-05-04 11:52 47.44142 10.15933 30747 ft 508 kts 97°
2026-05-04 11:53 47.43852 10.19573 30905 ft 507 kts 103°
2026-05-04 11:53 47.43168 10.24704 31106 ft 510 kts 104°
2026-05-04 11:55 47.38289 10.60415 33655 ft 505 kts 103°
2026-05-04 11:55 47.37597 10.65432 34013 ft 504 kts 103°
2026-05-04 11:56 47.36892 10.70506 34290 ft 503 kts 104°
2026-05-04 11:56 47.36185 10.75564 34589 ft 502 kts 104°
2026-05-04 11:56 47.35478 10.80613 34850 ft 502 kts 103°
2026-05-04 11:56 47.34768 10.85673 35128 ft 502 kts 103°
2026-05-04 11:57 47.34067 10.90656 35400 ft 501 kts 104°
2026-05-04 11:57 47.33354 10.95697 35674 ft 501 kts 104°
2026-05-04 11:57 47.32640 11.00725 35928 ft 501 kts 104°
2026-05-04 11:57 47.31925 11.05749 36199 ft 501 kts 104°
2026-05-04 11:58 47.31448 11.09096 36375 ft 500 kts 104°
2026-05-04 11:58 47.30730 11.14111 36642 ft 500 kts 104°
2026-05-04 11:58 47.29774 11.20765 37014 ft 499 kts 104°
2026-05-04 11:59 47.28569 11.29109 36986 ft 500 kts 104°
2026-05-04 11:59 47.27118 11.39110 36988 ft 496 kts 104°
2026-05-04 12:00 47.25523 11.48963 37016 ft 491 kts 114°
2026-05-04 12:00 47.24057 11.53485 37024 ft 489 kts 125°
2026-05-04 12:00 47.22150 11.57634 37004 ft 490 kts 127°
2026-05-04 12:01 47.18246 11.65784 37010 ft 490 kts 128°
2026-05-04 12:02 47.05344 11.95162 37044 ft 494 kts 118°
2026-05-04 12:03 47.02331 12.04178 37058 ft 493 kts 118°
2026-05-04 12:03 46.99305 12.13195 37083 ft 491 kts 118°
2026-05-04 12:04 46.96301 12.22118 37091 ft 491 kts 118°
2026-05-04 12:04 46.93265 12.31106 37097 ft 491 kts 118°
2026-05-04 12:05 46.90229 12.40058 37104 ft 491 kts 118°
2026-05-04 12:05 46.87183 12.49013 37093 ft 492 kts 118°
2026-05-04 12:06 46.84129 12.57959 37086 ft 492 kts 118°
2026-05-04 12:06 46.81062 12.66917 37073 ft 492 kts 118°
2026-05-04 12:07 46.77998 12.75832 37065 ft 492 kts 118°
2026-05-04 12:07 46.74937 12.84707 37063 ft 492 kts 118°
2026-05-04 12:08 46.71851 12.93627 37064 ft 491 kts 118°
2026-05-04 12:08 46.68762 13.02524 37064 ft 492 kts 118°
2026-05-04 12:09 46.65667 13.11410 37063 ft 492 kts 118°
2026-05-04 12:09 46.62582 13.20236 37063 ft 492 kts 118°
2026-05-04 12:10 46.59466 13.29121 37068 ft 492 kts 118°
2026-05-04 12:10 46.56169 13.37842 37110 ft 490 kts 129°
2026-05-04 12:11 46.51533 13.45082 37084 ft 491 kts 136°
2026-05-04 12:11 46.46735 13.52108 37076 ft 492 kts 136°
2026-05-04 12:12 46.41928 13.59174 37078 ft 492 kts 137°
2026-05-04 12:12 46.37097 13.66232 37083 ft 492 kts 137°
2026-05-04 12:14 46.17767 13.94320 37090 ft 493 kts 136°
2026-05-04 12:15 46.12901 14.01346 37092 ft 494 kts 136°
2026-05-04 12:15 46.08015 14.08379 37086 ft 495 kts 136°
2026-05-04 12:16 46.03157 14.15353 37084 ft 495 kts 136°
2026-05-04 12:16 45.98258 14.22370 37082 ft 495 kts 137°
2026-05-04 12:17 45.93362 14.29363 37080 ft 495 kts 137°
2026-05-04 12:17 45.88495 14.36296 37080 ft 496 kts 137°
2026-05-04 12:18 45.83582 14.43276 37076 ft 496 kts 137°
2026-05-04 12:18 45.78684 14.50216 37077 ft 496 kts 137°
2026-05-04 12:19 45.73762 14.57172 37080 ft 497 kts 137°
2026-05-04 12:19 45.68832 14.64121 37081 ft 497 kts 137°
2026-05-04 12:20 45.63931 14.71012 37082 ft 497 kts 137°
2026-05-04 12:20 45.58992 14.77939 37084 ft 497 kts 137°
2026-05-04 12:21 45.54041 14.84863 37078 ft 498 kts 137°
2026-05-04 12:21 45.49111 14.91741 37083 ft 498 kts 137°
2026-05-04 12:22 45.44146 14.98649 37084 ft 498 kts 137°
2026-05-04 12:22 45.39180 15.05540 37086 ft 498 kts 137°
2026-05-04 12:23 45.34213 15.12416 37084 ft 498 kts 137°
2026-05-04 12:23 45.29269 15.19242 37083 ft 499 kts 137°
2026-05-04 12:24 45.24276 15.26118 37081 ft 499 kts 137°
2026-05-04 12:24 45.19270 15.32994 37081 ft 500 kts 137°
2026-05-04 12:25 45.14267 15.39848 37077 ft 501 kts 137°
2026-05-04 12:25 45.09277 15.46666 37076 ft 501 kts 137°
2026-05-04 12:26 45.04246 15.53523 37076 ft 502 kts 137°
2026-05-04 12:26 44.99210 15.60371 37072 ft 502 kts 137°
2026-05-04 12:27 44.94165 15.67211 37067 ft 502 kts 136°
2026-05-04 12:27 44.89131 15.74019 37069 ft 504 kts 136°
2026-05-04 12:28 44.84050 15.80874 37074 ft 504 kts 136°
2026-05-04 12:28 44.79001 15.87668 37074 ft 504 kts 136°
2026-05-04 12:29 44.73932 15.94471 37073 ft 503 kts 136°
2026-05-04 12:29 44.68852 16.01272 37077 ft 504 kts 137°
2026-05-04 12:30 44.63766 16.08064 37080 ft 504 kts 136°
2026-05-04 12:30 44.58678 16.14842 37086 ft 504 kts 136°
2026-05-04 12:31 44.53576 16.21619 37093 ft 505 kts 136°
2026-05-04 12:31 44.48492 16.28357 37097 ft 506 kts 136°
2026-05-04 12:32 44.40801 16.38517 37103 ft 506 kts 136°
2026-05-04 12:33 44.35672 16.45271 37101 ft 506 kts 136°
2026-05-04 12:33 44.30540 16.52011 37104 ft 506 kts 136°
2026-05-04 12:34 44.25402 16.58743 37102 ft 507 kts 136°
2026-05-04 12:34 44.20288 16.65427 37104 ft 507 kts 136°
2026-05-04 12:35 44.15135 16.72145 37107 ft 507 kts 136°
2026-05-04 12:35 44.09974 16.78857 37103 ft 507 kts 136°
2026-05-04 12:36 44.04807 16.85559 37105 ft 507 kts 137°
2026-05-04 12:36 43.99634 16.92252 37104 ft 506 kts 137°
2026-05-04 12:37 43.94501 16.98878 37103 ft 507 kts 137°